Weather in Lyambir

Russia / Republic of Mordovia     54°16′58″N   45°07′18″E
temp.,
°C
wind,
m/s
gust,
m/s
humid.,
%
clouds,
%
prec.,
mm/h
press.,
hPa
HPBL,
m
4 march, thu
thu400:00−6wsw6129549 0.0 1008301
03:00−2wsw7129473 0.2 1007698
06:00−2wsw71393100 0.2 1004745
09:00−1wsw91591100 0.4 1001907
12:000wsw91597100 0.6 999998
15:000wsw101692100 0.7 9991078
18:00−1w71396100 0.6 999718
21:00−1w4797100 1.8 1000427
5 march, fri
fri500:00−4wnw2397100 0.8 1000113
03:00−4nw2297100 1.6 100065
06:00−6n2497100 0.5 100296
09:00−7n3592100 0.6 1004227
12:00−6nnw238825 0.0 1006297
15:00−4wnw258720 0.0 1008505
18:00−8w349126 0.0 101040
21:00−9wsw479528 0.0 1012123
6 march, sat
sat600:00−10w479680 0.0 1013140
03:00−12w449659 0.1 101478
06:00−15wnw239740 0.0 101523
09:00−13nnw239125 0.0 1016142
12:00−10n227812 0.0 1017300
15:00−10n228012 0.0 1016267
18:00−15s11870 0.0 101521
21:00−15sw128444 0.0 101620
7 march, sun
sun700:00−14sw238887 0.0 101528
03:00−13sw349694 0.2 1015111
06:00−12sw3796100 0.2 1014187
09:00−11wsw589492 0.2 1012270
12:00−7sw7128247 0.0 1009767
15:00−7sw9159174 0.1 1006933
18:00−6ssw101793100 0.4 10021124
21:00−5sw101693100 1.4 9991009
8 march, mon
mon800:00−7w61382100 0.8 999711
03:00−13wsw498567 0.8 1002140
06:00−13sw510810 0.0 1002175
09:00−10ssw512740 0.0 1001290
12:00−6ssw6109467 0.2 997643
15:00−4wsw10149183 1.8 9961153
18:00−10w8168380 0.1 999733
21:00−9w10168888 0.3 1004867